Regional Weather Roundup
Issued by NWS Sioux Falls, SD

Home | Current Version | Previous Version | Text Only | Print | Product List | Glossary On
Versions: 1 2 3 4 5 6 7 8 9 10 11 12 13 14 15 16 17 18 19 20 21 22 23 24 25 26 27 28 29 30 31 32 33 34 35 36 37 38 39 40 41 42 43 44 45 46 47 48 49 50
000
ASUS43 KFSD 062010
RWRFSD

WEATHER ROUNDUP FOR SE SOUTH DAKOTA/SW MINNESOTA/NW IOWA
NATIONAL WEATHER SERVICE SIOUX FALLS SD
200 PM CST TUE DEC 06 2016

NOTE: "FAIR" INDICATES FEW OR NO CLOUDS BELOW 12,000 FEET WITH NO
SIGNIFICANT WEATHER AND OR OBSTRUCTIONS TO VISIBILITY.


SDZ038>040-050-052>070-062100-
SOUTHEAST SOUTH DAKOTA

CITY           SKY/WX    TMP DP  RH WIND       PRES   REMARKS
BROOKINGS      FLURRIES  16   9  74 MISG        N/A
CHAMBERLAIN    MOSUNNY   19   7  59 W31       29.98S WCI   0
HURON          MIX PCPN  17   7  64 NW32G45   29.91R WCI  -3
MADISON        FLURRIES  18  10  73 W28G43    29.83S WCI  -1
MITCHELL       CLOUDY    20   9  62 W29G40    29.95S WCI   1
SIOUX FALLS    FLURRIES  22  11  62 W29G40    29.86S WCI   4
WINNER         FAIR      22   6  50 NW29      29.99S WCI   4
YANKTON        SUNNY    N/A N/A N/A W25G36    29.93R
$$

MNZ071-072-080-081-089-090-097-098-062100-
SOUTHWEST MINNESOTA

CITY           SKY/WX    TMP DP  RH WIND       PRES   REMARKS
FAIRMONT       CLOUDY    23  13  65 W30G41    29.80S WCI   5
JACKSON        CLOUDY    23  12  63 W25G39    29.79S WCI   7
LUVERNE        MOSUNNY   23  10  58 W28G38    29.85S WCI   6
MARSHALL       FLURRIES  20  11  68 W33G44    29.75  WCI   0
MONTEVIDEO       N/A    N/A N/A N/A NW22G29   29.74R
PIPESTONE      FLURRIES  19  10  68 NW28G41   29.80R WCI   1
REDWOOD FALLS  CLOUDY    22   9  57 W31G45    29.75R WCI   4
TRACY          PTSUNNY   22  13  67 W20G31    29.78R WCI   7
WINDOM         PTSUNNY   21  12  68 W33       29.77R WCI   2
WORTHINGTON    FLURRIES  21  12  68 W30G40    29.79S WCI   3
$$

IAZ001>003-012>014-020>022-031-032-NEZ013-014-SDZ071-062100-
NORTHWEST IOWA

CITY           SKY/WX    TMP DP  RH WIND       PRES   REMARKS
ESTHERVILLE    PTSUNNY   22  13  68 W31G39    29.82S WCI   4
LE MARS        PTSUNNY   28  12  50 W23G30    29.94S WCI  14
SIOUX CITY     SUNNY     31  11  43 NW24G32   29.93F WCI  17
SPENCER        CLOUDY    25  13  60 W37G43    29.85S WCI   7
$$

ABBREVIATIONS USED IN REMARKS
   TC - TEMPERATURE IN CELSIUS
  WCI - WIND CHILL INDEX
   HX - HEAT INDEX
  VSB - VISIBILITY




USA.gov is the U.S. government's official web portal to all federal, state and local government web resources and services.